| time (UTC) | temp F | wind direction | speed MPH | gust MPH | rain 1hr in | rain 24hr in | rain mn in | humidity % | barometer mb |
| 20260906220056 | 66 | 138 | 2.0 | 5.0 | 0.00 | 0.01 | 0.00 | 52 | 1030.2 |
| 20260906214605 | 67 | 100 | 1.0 | 5.0 | 0.00 | 0.01 | 0.00 | 49 | 1030.3 |
| 20260906213103 | 69 | 122 | 3.0 | 8.0 | 0.00 | 0.01 | 0.00 | 47 | 1030.4 |
| 20260906211558 | 68 | 134 | 4.0 | 8.0 | 0.00 | 0.01 | 0.00 | 47 | 1030.4 |
| 20260906210057 | 68 | 117 | 2.0 | 7.0 | 0.00 | 0.01 | 0.00 | 46 | 1030.5 |
| 20260906204646 | 68 | 124 | 3.0 | 8.0 | 0.00 | 0.01 | 0.00 | 46 | 1030.7 |
| 20260906203101 | 69 | 132 | 3.0 | 6.0 | 0.00 | 0.01 | 0.00 | 43 | 1030.7 |
| 20260906201634 | 69 | 63 | 4.0 | 9.0 | 0.00 | 0.01 | 0.00 | 43 | 1030.8 |
| 20260906200104 | 71 | 86 | 5.0 | 9.0 | 0.00 | 0.01 | 0.00 | 40 | 1030.8 |
| 20260906194607 | 71 | 117 | 5.0 | 10.0 | 0.00 | 0.01 | 0.00 | 40 | 1030.8 |
| 20260906193107 | 70 | 77 | 2.0 | 7.0 | 0.00 | 0.01 | 0.00 | 41 | 1030.8 |
| 20260906191618 | 68 | 113 | 2.0 | 10.0 | 0.00 | 0.01 | 0.00 | 43 | 1031.0 |
| 20260906184601 | 70 | 222 | 4.0 | 9.0 | 0.00 | 0.01 | 0.00 | 40 | 1031.3 |
| 20260906183100 | 70 | 129 | 5.0 | 12.0 | 0.00 | 0.01 | 0.00 | 40 | 1031.3 |
| 20260906181607 | 70 | 117 | 6.0 | 13.0 | 0.00 | 0.01 | 0.00 | 41 | 1031.3 |
| 20260906180104 | 69 | 134 | 6.0 | 12.0 | 0.00 | 0.01 | 0.00 | 40 | 1031.4 |
| 20260906174611 | 71 | 96 | 5.0 | 14.0 | 0.00 | 0.01 | 0.00 | 40 | 1031.5 |
| 20260906173054 | 69 | 103 | 6.0 | 10.0 | 0.00 | 0.01 | 0.00 | 41 | 1031.7 |
| 20260906171604 | 70 | 93 | 6.0 | 12.0 | 0.00 | 0.01 | 0.00 | 39 | 1031.7 |
| 20260906170106 | 72 | 76 | 7.0 | 13.0 | 0.00 | 0.01 | 0.00 | 39 | 1031.9 |
| 20260906164558 | 71 | 114 | 4.0 | 12.0 | 0.00 | 0.01 | 0.00 | 38 | 1031.9 |
| 20260906163105 | 69 | 92 | 4.0 | 11.0 | 0.00 | 0.01 | 0.00 | 40 | 1031.9 |
| 20260906161607 | 69 | 98 | 3.0 | 8.0 | 0.00 | 0.01 | 0.00 | 39 | 1032.0 |
| 20260906160101 | 68 | 31 | 4.0 | 10.0 | 0.00 | 0.01 | 0.00 | 40 | 1032.2 |
| 20260906154616 | 68 | 131 | 2.0 | 7.0 | 0.00 | 0.01 | 0.00 | 39 | 1031.8 |
| 20260906153123 | 67 | 80 | 2.0 | 8.0 | 0.00 | 0.01 | 0.00 | 39 | 1031.8 |
| 20260906151602 | 67 | 138 | 3.0 | 7.0 | 0.00 | 0.01 | 0.00 | 40 | 1031.9 |
| 20260906150057 | 67 | 97 | 3.0 | 5.0 | 0.00 | 0.01 | 0.00 | 40 | 1032.1 |
| 20260906144617 | 66 | 132 | 1.0 | 5.0 | 0.00 | 0.01 | 0.00 | 41 | 1031.9 |
| 20260906143106 | 64 | 131 | 1.0 | 1.0 | 0.00 | 0.01 | 0.00 | 42 | 1032.0 |
| 20260906141607 | 65 | 0 | 0.0 | 1.0 | 0.00 | 0.01 | 0.00 | 39 | 1032.2 |
| 20260906140110 | 64 | 131 | 0.0 | 1.0 | 0.00 | 0.01 | 0.00 | 41 | 1031.9 |
| 20260906134631 | 61 | 0 | 0.0 | 0.0 | 0.00 | 0.01 | 0.00 | 46 | 1031.9 |
| 20260906133104 | 60 | 278 | 0.0 | 1.0 | 0.00 | 0.01 | 0.00 | 46 | 1031.6 |
| 20260906131558 | 57 | 278 | 0.0 | 1.0 | 0.00 | 0.01 | 0.00 | 48 | 1031.5 |
| 20260906130107 | 57 | 278 | 1.0 | 1.0 | 0.00 | 0.01 | 0.00 | 48 | 1031.5 |
| 20260906124608 | 57 | 0 | 0.0 | 2.0 | 0.00 | 0.01 | 0.00 | 48 | 1031.3 |
| 20260906123102 | 57 | 278 | 0.0 | 1.0 | 0.00 | 0.01 | 0.00 | 47 | 1031.2 |
| 20260906121602 | 57 | 278 | 1.0 | 2.0 | 0.00 | 0.01 | 0.00 | 48 | 1031.1 |
| 20260906120054 | 58 | 251 | 1.0 | 4.0 | 0.00 | 0.01 | 0.00 | 45 | 1031.1 |
| 20260906114631 | 58 | 281 | 1.0 | 5.0 | 0.00 | 0.01 | 0.00 | 46 | 1031.2 |
| 20260906113101 | 57 | 276 | 1.0 | 3.0 | 0.00 | 0.01 | 0.00 | 48 | 1031.2 |
| 20260906111621 | 56 | 281 | 1.0 | 2.0 | 0.00 | 0.01 | 0.00 | 53 | 1031.2 |
| 20260906104606 | 57 | 65 | 1.0 | 2.0 | 0.00 | 0.01 | 0.00 | 50 | 1031.2 |
| 20260906103053 | 57 | 277 | 1.0 | 2.0 | 0.00 | 0.01 | 0.00 | 45 | 1031.1 |
| 20260906101601 | 59 | 276 | 1.0 | 3.0 | 0.00 | 0.01 | 0.00 | 42 | 1031.2 |
| 20260906100059 | 59 | 274 | 2.0 | 4.0 | 0.00 | 0.01 | 0.00 | 41 | 1031.2 |
| 20260906094558 | 60 | 281 | 1.0 | 2.0 | 0.00 | 0.01 | 0.00 | 44 | 1031.2 |
| 20260906093101 | 61 | 269 | 1.0 | 4.0 | 0.00 | 0.01 | 0.00 | 44 | 1031.3 |
| 20260906091607 | 62 | 239 | 1.0 | 4.0 | 0.00 | 0.01 | 0.00 | 44 | 1031.3 |
| 20260906090115 | 60 | 243 | 1.0 | 2.0 | 0.00 | 0.01 | 0.00 | 46 | 1031.3 |
| 20260906084608 | 62 | 221 | 2.0 | 5.0 | 0.00 | 0.01 | 0.00 | 44 | 1031.2 |
| 20260906083103 | 62 | 296 | 3.0 | 7.0 | 0.00 | 0.01 | 0.00 | 44 | 1031.1 |
| 20260906081606 | 62 | 280 | 3.0 | 7.0 | 0.00 | 0.01 | 0.00 | 44 | 1031.3 |
| 20260906074616 | 62 | 217 | 3.0 | 6.0 | 0.00 | 0.01 | 0.00 | 45 | 1031.5 |
| 20260906073109 | 61 | 231 | 3.0 | 6.0 | 0.00 | 0.01 | 0.00 | 47 | 1031.5 |
| 20260906071609 | 61 | 233 | 1.0 | 6.0 | 0.00 | 0.01 | 0.00 | 48 | 1031.6 |
| 20260906070138 | 60 | 232 | 3.0 | 6.0 | 0.00 | 0.01 | 0.00 | 49 | 1031.5 |
| 20260906064608 | 60 | 215 | 3.0 | 7.0 | 0.00 | 0.01 | 0.00 | 50 | 1031.6 |
| 20260906063117 | 60 | 226 | 3.0 | 6.0 | 0.00 | 0.01 | 0.00 | 51 | 1031.8 |
| 20260906061637 | 60 | 334 | 2.0 | 10.0 | 0.00 | 0.01 | 0.00 | 52 | 1031.7 |
| 20260906060111 | 61 | 205 | 2.0 | 10.0 | 0.00 | 0.01 | 0.00 | 50 | 1032.1 |
| 20260906054553 | 62 | 190 | 4.0 | 9.0 | 0.00 | 0.01 | 0.01 | 48 | 1032.1 |
| 20260906053058 | 61 | 214 | 4.0 | 12.0 | 0.00 | 0.01 | 0.01 | 49 | 1032.1 |
| 20260906051553 | 61 | 215 | 4.0 | 10.0 | 0.00 | 0.01 | 0.01 | 49 | 1032.2 |
| 20260906050115 | 60 | 159 | 1.0 | 3.0 | 0.00 | 0.01 | 0.01 | 51 | 1032.2 |
| 20260906044559 | 59 | 283 | 2.0 | 5.0 | 0.01 | 0.01 | 0.01 | 55 | 1032.2 |
| 20260906043108 | 60 | 291 | 2.0 | 6.0 | 0.01 | 0.01 | 0.01 | 52 | 1032.2 |
| 20260906041602 | 59 | 235 | 4.0 | 11.0 | 0.01 | 0.01 | 0.01 | 56 | 1032.5 |
| 20260906040119 | 58 | 269 | 3.0 | 12.0 | 0.01 | 0.01 | 0.01 | 64 | 1032.6 |
| 20260906034558 | 63 | 289 | 1.0 | 5.0 | 0.00 | 0.00 | 0.00 | 43 | 1032.2 |
| 20260906033057 | 62 | 273 | 3.0 | 5.0 | 0.00 | 0.00 | 0.00 | 44 | 1032.0 |
| 20260906031609 | 62 | 273 | 2.0 | 4.0 | 0.00 | 0.00 | 0.00 | 44 | 1032.1 |
| 20260906030109 | 62 | 280 | 1.0 | 5.0 | 0.00 | 0.00 | 0.00 | 45 | 1031.9 |
| 20260906024557 | 61 | 271 | 2.0 | 3.0 | 0.00 | 0.00 | 0.00 | 46 | 1031.7 |
| 20260906023130 | 60 | 262 | 1.0 | 4.0 | 0.00 | 0.00 | 0.00 | 47 | 1031.7 |
| 20260906021600 | 60 | 278 | 1.0 | 5.0 | 0.00 | 0.00 | 0.00 | 49 | 1031.7 |
| 20260906020058 | 59 | 263 | 2.0 | 6.0 | 0.00 | 0.00 | 0.00 | 51 | 1031.5 |
| 20260906014626 | 60 | 243 | 2.0 | 7.0 | 0.00 | 0.00 | 0.00 | 52 | 1031.3 |
| 20260906013101 | 60 | 245 | 2.0 | 8.0 | 0.00 | 0.00 | 0.00 | 55 | 1031.6 |
| 20260906011601 | 61 | 304 | 2.0 | 6.0 | 0.00 | 0.00 | 0.00 | 51 | 1031.8 |
| 20260906010058 | 61 | 270 | 0.0 | 5.0 | 0.00 | 0.00 | 0.00 | 53 | 1031.6 |
| 20260906004607 | 61 | 0 | 0.0 | 1.0 | 0.00 | 0.00 | 0.00 | 52 | 1031.6 |
| 20260906003109 | 62 | 86 | 0.0 | 2.0 | 0.00 | 0.00 | 0.00 | 50 | 1031.7 |
| 20260906001603 | 62 | 260 | 0.0 | 2.0 | 0.00 | 0.00 | 0.00 | 52 | 1031.6 |
| 20260906000107 | 62 | 260 | 0.0 | 3.0 | 0.00 | 0.00 | 0.00 | 58 | 1031.8 |
| 20260905234557 | 62 | 213 | 0.0 | 1.0 | 0.00 | 0.00 | 0.00 | 54 | 1031.9 |
| 20260905233104 | 61 | 211 | 1.0 | 14.0 | 0.00 | 0.00 | 0.00 | 63 | 1031.9 |
| 20260905231602 | 68 | 218 | 5.0 | 11.0 | 0.00 | 0.00 | 0.00 | 35 | 1031.9 |
| 20260905230103 | 69 | 203 | 1.0 | 4.0 | 0.00 | 0.00 | 0.00 | 34 | 1031.5 |
| 20260905224604 | 71 | 126 | 2.0 | 4.0 | 0.00 | 0.00 | 0.00 | 32 | 1031.4 |
| 20260905223103 | 71 | 41 | 2.0 | 5.0 | 0.00 | 0.00 | 0.00 | 32 | 1031.4 |
| 20260905221603 | 70 | 259 | 3.0 | 7.0 | 0.00 | 0.00 | 0.00 | 35 | 1031.5 |